Regional Weather Roundup
Issued by NWS Charleston, SC

Current Version | Previous Version | Graphics & Text | Print | Product List | Glossary On
Versions: 1 2 3 4 5 6 7 8 9 10 11 12 13 14 15 16 17 18 19 20 21 22 23 24 25 26 27 28 29 30 31 32 33 34 35 36 37 38 39 40 41 42 43 44 45 46 47 48 49 50
000
ASUS42 KCHS 242012
RWRCHS

REGIONAL WEATHER ROUNDUP
NATIONAL WEATHER SERVICE CHARLESTON SC
400 PM EDT SUN MAY 24 2015

NOTE: "FAIR" INDICATES FEW OR NO CLOUDS BELOW 12,000 FEET WITH NO
SIGNIFICANT WEATHER AND/OR OBSTRUCTIONS TO VISIBILITY.

NOT ALL STATIONS ARE QUALITY CONTROLLED BY THE NATIONAL
WEATHER SERVICE. USE DATA WITH CAUTION...ESPECIALLY
DEWPOINT OBSERVATIONS.

SCZ027-030-031-034>040-042>050-242100-
...SOUTHEAST SOUTH CAROLINA...

CITY           SKY/WX    TMP DP  RH WIND       PRES   REMARKS
N CHARLESTON   MOSUNNY   80  58  46 E9        30.32F
WATERFRONT PAR   N/A     76  63  63 E14       30.30F
MOUNT PLEASANT LGT RAIN  79  61  53 NE10G20   30.33F
JOHNS ISLAND   PTCLDY    79  63  57 E12G23    30.33F
PINOPOLIS        N/A     82  55  39 SE6       30.24F
MONCKS CORNER  FAIR      82  55  39 SE7       30.32F
SUMMERVILLE    FAIR      81  59  47 SE8       30.32F
BEAUFORT MCAS  PTSUNNY   79  62  56 E16G22    30.31F
BEAUFORT ARPT  CLOUDY    79  64  61 E14G21    30.31F
HILTON HEAD IS MOSUNNY   79  66  65 N9G20     30.32F
WALTERBORO     PTCLDY    81  55  41 SE12      30.31F
ALLENDALE      FAIR      82  57  42 E9G15     30.29F

...SOUTHERN MIDLANDS AND PEE DEE...

CITY           SKY/WX    TMP DP  RH WIND       PRES   REMARKS
GEORGETOWN     NOT AVBL
KINGSTREE      NOT AVBL
ORANGEBURG     MOSUNNY   82  55  39 SE9       30.31F
BARNWELL       FAIR      82  55  39 E12G17    30.29F
AIKEN          FAIR      82  48  30 E10       30.33F
MANNING        FAIR      81  54  39 E7        30.32F
COLUMBIA       MOSUNNY   84  53  34 E15       30.30F
SUMTER         MOSUNNY   84  55  35 S12G17    30.30F
FLORENCE       MOSUNNY   84  55  36 SE14      30.33F
MYRTLE BEACH   MOSUNNY   81  57  44 SE14      30.38F
N MYRTLE BEACH SUNNY     79  59  50 SE12      30.36F

$$

GAZ063-065-086>088-099>101-113>116-118-119-134>141-150-242100-
...SOUTHEAST GEORGIA...

CITY           SKY/WX    TMP DP  RH WIND       PRES   REMARKS
SAVANNAH ARPT  PTSUNNY   80  61  52 E17G23    30.29F
HUNTER AAF     MOSUNNY   83  66  56 E16G22    30.27F
FORT STEWART   MOSUNNY   82  57  42 E16       30.25F
STATESBORO     MOSUNNY   83  62  49 SE9       30.28F
SYLVANIA       PTCLDY    85  61  43 SE8       30.29F
CLAXTON        FAIR      82  61  47 E12G20    30.27F

...CSRA...CENTRAL AND FAR SOUTHEAST GEORGIA...

CITY           SKY/WX    TMP DP  RH WIND       PRES   REMARKS
THOMSON        MOSUNNY   84  60  43 CALM      30.32F
AUGUSTA-BUSH   MOSUNNY   85  56  37 SE9       30.27F
AUGUSTA-DANIEL SUNNY     85  54  34 S10G17    30.28F
SWAINSBORO     FAIR      88  55  33 SE7       30.26F
VIDALIA        MOSUNNY   86  55  35 E10       30.25F
EASTMAN        FAIR      87  60  39 E10       30.26F
HAZLEHURST     MOCLDY    84  58  40 E8        30.23F
ALMA           MOSUNNY   83  57  41 E9        30.23F
WAYCROSS       PTSUNNY   86  63  45 E13       30.24S
JESUP          MOCLDY    86  63  45 E8        30.26F
BAXLEY         PTSUNNY   88  59  37 SE9       30.24F
BRUNSWICK      PTSUNNY   82  63  51 E16       30.27F
SAINT SIMONS   NOT AVBL

$$

SCZ027-028-034-036>038-045-046-048>050-GAZ119-141-242100-
...LAKE AND SUPPLEMENTAL COASTAL OBSERVATIONS...

STATION/POSITION TIME  TEMP    WIND        PRES    WAVE   SWELL
                       AIR SEA DIR/SP/G            HT/PER HT/PER/DIR
                 (UTC) (F)     (DEG/KT/KT) (MB)    (FT/S) (FT/S/D)
UPR LAKE MARION  NOT AVBL
WINYAH BAY       1845   75      90/ 11     1027.0
LAKE MURRAY      1900   79      90/  4/  8 1026.1F
ACE BASIN NERRS  NOT AVBL
FORT PULASKI     1900   76 77   60/ 14/ 19 1027.1F
SAPELO ISLAND    1900   81      60/ 12     1026.0S

$$

ANZ835-935-AMZ111-154-330-350-352-354-370-450-454-472-242100-
...C-MAN AND BUOY OBSERVATIONS...

STATION/POSITION TIME  TEMP    WIND        PRES    WAVE   SWELL
                       AIR SEA DIR/SP/G            HT/PER HT/PER/DIR
                 (UTC) (F)     (DEG/KT/KT) (MB)    (FT/S) (FT/S/D)
BUOY 41004       1950   76 75   90/ 14/ 16 1026.2F   4/ 8   2/ 8
BUOY 41008       1950   75 75   50/ 14/ 17 1025.2F   4/ 8   3/100/ 8
FOLLY BEACH CMAN 2000   76      80/ 13/ 15 1027.0F
CAPERS NEARSHORE NOT AVBL
FRIPP NEARSHORE  1900   76      80/ 17/ 19 1025.8F


STATION/POSITION TIME  TEMP    WIND        PRES    WAVE   SWELL
                       AIR SEA DIR/SP/G            HT/PER HT/PER/DIR
                 (UTC) (F)     (DEG/KT/KT) (MB)    (FT/S) (FT/S/D)
5E ST. MARYS GA  1921      78                N/A     4/ 8
FRYING PAN BUOY  1950   76 74  110/ 12/ 16 1028.5F   4/ 6   2/130/ 7
BUOY 41025       1950   73 78   30/  6/  8 1028.9F   2/ 8   2/ 70/ 8
CAPE LOOKOUT NC  2000   74      80/  6/  8 1028.2F
BUOY 41002       1950   72 74   80/ 16/ 21 1027.0F   6/ 7
BUOY 41010       1920   79 80   90/ 14/ 16 1023.0F
ST AUGUSTINE FL  2000   77 78   50/  9/ 11 1024.4F


$$



USA.gov is the U.S. government's official web portal to all federal, state and local government web resources and services.